Regional Weather Roundup
Issued by NWS

Home | Current Version | Previous Version | Text Only | Print | Product List | Glossary On
Versions: 1 2 3 4 5 6 7 8 9 10 11 12 13 14 15 16 17 18 19 20 21 22 23 24 25 26 27 28 29 30 31 32 33 34 35 36 37 38 39 40 41 42 43 44 45 46 47 48 49 50
000
ASUS43 KLSX 230707
RWRMO

WEATHER SUMMARY FOR MISSOURI
NATIONAL WEATHER SERVICE SPRINGFIELD MO
200 AM CDT SAT AUG 23 2014

NOTE: "FAIR" INDICATES FEW OR NO CLOUDS BELOW 12,000 FEET WITH NO
       SIGNIFICANT WEATHER AND/OR OBSTRUCTIONS TO VISIBILITY.
       CURRENT SKY AND/OR WEATHER CONDITIONS ARE NOT AVAILABLE FOR
       CHILLICOTHE AND FARMINGTON.

MOZ001>031-035>038-043-044-053-054-230800-
...NORTHERN AND WESTERN MISSOURI...

CITY           SKY/WX    TMP DP  RH WIND       PRES   REMARKS
KANSAS CTY INT MOCLDY    78  69  73 SE8       29.91F
KANSAS C DTWN  CLEAR     81  70  69 CALM      29.90F
LEE`S SUMMIT   CLEAR     79  68  69 S5        29.93S
ST JOSEPH      PTCLDY    80  77  90 SE8       29.89F
KIRKSVILLE     CLEAR     77  75  93 SE6       29.94F

$$
MOZ066>068-077>081-088>096-101>105-230800-
...SOUTHWEST MISSOURI...

CITY           SKY/WX    TMP DP  RH WIND       PRES   REMARKS
SPRINGFIELD    CLEAR     77  71  82 S8        29.99S
JOPLIN         CLEAR     81  71  71 S12       29.97R

$$
MOZ032>034-039>042-045>050-055>058-069>072-230800-
...CENTRAL MISSOURI...

CITY           SKY/WX    TMP DP  RH WIND       PRES   REMARKS
COLUMBIA       CLEAR     79  76  90 NW3       29.94F
JEFFERSON CITY CLEAR     77  74  90 CALM      29.92F
ROLLA          CLEAR     77  69  76 SW9       29.96S
SEDALIA        CLEAR     76  72  87 S6        29.95F
WHITEMAN AFB   CLEAR     75  68  80 S3        29.93F
OSAGE BEACH    CLEAR     79  70  73 CALM      29.96F

$$
MOZ051-052-059>065-230800-
...EAST CENTRAL MISSOURI...

CITY           SKY/WX    TMP DP  RH WIND       PRES   REMARKS
ST LOUIS INTL  MOCLDY    81  77  88 E3        29.94S
SPIRIT OF STL  PTCLDY    78  76  93 CALM      29.92S
ST CHARLES     PTCLDY    77  75  93 E6        29.91F

$$
MOZ072>076-082>087-097>100-106>115-230800-
...SOUTH CENTRAL AND SOUTHEAST MISSOURI...

CITY           SKY/WX    TMP DP  RH WIND       PRES   REMARKS
CAPE GIRARDEAU PTCLDY    79  75  87 S5        29.96S
FARMINGTON     MOCLDY    77  73  88 S5        30.00R
POPLAR BLUFF   PTCLDY    78  72  81 CALM      29.95S
WEST PLAINS    CLEAR     78  70  76 SW5       30.02S

$$


USA.gov is the U.S. government's official web portal to all federal, state and local government web resources and services.